Regional Weather Roundup
Issued by NWS

Home | Current Version | Previous Version | Graphics & Text | Print | Product List | Glossary On
Versions: 1 2 3 4 5 6 7 8 9 10 11 12 13 14 15 16 17 18 19 20 21 22 23 24 25 26 27
000
ASUS45 KTFX 051010
RWRMT
MONTANA REGIONAL WEATHER ROUNDUP
NATIONAL WEATHER SERVICE GREAT FALLS MT
400 AM MDT THU MAY 05 2016

NOTE: "FAIR" INDICATES FEW OR NO CLOUDS BELOW 12000 FEET WITH NO
SIGNIFICANT WEATHER AND/OR OBSTRUCTIONS TO VISIBILITY.

MTZ001>007-043-051100-
WEST OF THE DIVIDE

CITY           SKY/WX    TMP DP  RH WIND       PRES   REMARKS
KALISPELL      CLOUDY    56  45  66 N5        29.86F
MISSOULA       MOCLDY    48  41  76 NW8       29.92R
BUTTE          CLOUDY    45  34  65 CALM      29.99S
MULLAN PASS    CLOUDY    44  43  96 NW6       30.01R
ANACONDA         N/A     48  34  57 SW7       29.95S
DEER LODGE       N/A     43  34  70 CALM      29.95R
EUREKA           N/A     57  45  62 CALM      29.87
HAMILTON         N/A     50  37  62 CALM      29.89R
LIBBY            N/A     52  48  87 CALM      29.91R
PLAINS           N/A     55  46  71 CALM      29.90R
$$

MTZ008-052>055-051100-
SOUTHWEST MONTANA

CITY           SKY/WX    TMP DP  RH WIND       PRES   REMARKS
BOZEMAN        CLOUDY    51  36  56 SE8       29.95S
DILLON         CLOUDY    48  31  51 S6        29.97F
ENNIS          CLEAR     48  34  57 S13       30.05S
THREE FORKS      N/A     48  24  39 CALM      29.94F
TWIN BRIDGES     N/A     51  29  43 E8        29.97S
$$

MTZ009-010-012-014-046-048-049-054-051100-
EAST SLOPES AND CENTRAL MONTANA

CITY           SKY/WX    TMP DP  RH WIND       PRES   REMARKS
CUT BANK       CLOUDY    49  38  65 W5        29.87S
GREAT FALLS    PTCLDY    45  38  76 W5        29.87F
MALMSTROM AFB  CLOUDY    49  39  67 S1        29.87F
HELENA         CLOUDY    55  35  47 CALM      29.90S
CHOTEAU          N/A     54  37  54 SW7       29.90S
CONRAD           N/A     44  44 100 W2        29.91S
$$

MTZ011-013-016-021-045-047-050-051-051100-
NORTH CENTRAL MONTANA

CITY           SKY/WX    TMP DP  RH WIND       PRES   REMARKS
HAVRE          PTCLDY    47  41  80 SW6       29.83S
LEWISTOWN      PTCLDY    50  35  56 SE6       29.91F
N BAR RANCH      N/A     50  34  53 NW3       29.94F
$$

MTZ017>020-022>027-061-062-051100-
NORTHEAST MONTANA

CITY           SKY/WX    TMP DP  RH WIND       PRES   REMARKS
GLASGOW        CLEAR     55  40  56 SE12      29.81F
JORDAN           N/A     46  42  86 W3        29.84S
SIDNEY         CLEAR     50  41  71 S8        29.87R
WOLF POINT     CLEAR     49  42  77 E3        29.84R
POPLAR           N/A     52  41  66 CALM      29.84S
SCOBEY           N/A     45  33  62 CALM      29.84S
$$

MTZ028>42-056>058-051100-
SOUTHCENTRAL AND SOUTHEAST MONTANA

CITY           SKY/WX    TMP DP  RH WIND       PRES   REMARKS
BAKER          CLEAR     48  41  76 E6        29.93R
BILLINGS       CLOUDY    57  38  48 SW13      29.91R
LIVINGSTON     CLOUDY    48  34  58 NW3       29.96S
MILES CITY     CLEAR     56  43  61 S10       29.87S
EKALAKA          N/A     57  40  53 SE5       29.93F
FORSYTH          N/A     54  43  66 E5        29.86S
LAUREL           N/A     50  36  58 W1        29.91S
ROUNDUP          N/A     52  36  54 SW13      29.82S
$$

REGIONAL REPORTS...DAKOTAS

CITY           SKY/WX    TMP DP  RH WIND       PRES   REMARKS
WILLISTON      CLEAR     47  41  80 S3        29.85S
MINOT          CLEAR     66  41  40 SW14G23   29.84S
DICKINSON      CLEAR     50  40  68 S8        29.90F
BEACH            N/A     50  43  76 S12       29.94R
CROSBY           N/A     55  41  58 S15       29.85R
TIOGA            N/A     57  41  54 SW9       29.91S
WATFORD CITY     N/A     54  41  62 CALM      29.87S
BISMARCK       CLEAR     56  44  64 W3        29.93R
GRAND FORKS    CLEAR     53  33  46 S10       29.83S
FARGO          PTCLDY    55  30  38 S9        29.90F
BUFFALO SD       N/A     53  42  66 SE6       29.89F
RAPID CITY     CLEAR     46  41  82 SE7       29.97F
$$

REGIONAL REPORTS...WYOMING/IDAHO/WASHINGTON

CITY           SKY/WX    TMP DP  RH WIND       PRES   REMARKS
GILLETTE       CLOUDY    53  40  61 S14       29.98S
SHERIDAN       CLOUDY    47  36  65 CALM      29.94S
BUFFALO WY     CLOUDY    55  28  35 SW9       30.00F
CODY           CLOUDY    57  28  33 SW6       29.99S
YELLOWSTONE LA   N/A     32  28  85 CALM      30.19F
IDAHO FALLS    CLOUDY    45  36  70 NW5       29.99S
SALMON         CLOUDY    46  32  57 CALM      29.93S
BOISE          MOCLDY    63  44  50 W7        29.87S
SPOKANE        CLOUDY    54  50  86 S8        29.91R
$$

REGIONAL REPORTS...ALBERTA

CITY           SKY/WX    TMP DP  RH WIND       PRES   REMARKS
EDMONTON       MOCLDY    54  32  43 NW8       29.88R
CALGARY        MOCLDY    57  41  54 N16       29.87R
LETHBRIDGE     PTCLDY    50  39  66 SW9       29.83R
MEDICINE HAT   CLEAR     52  43  71 SW7       29.78S
WATERTON GATE    N/A     55  41  58 SW13G22     N/A
MILK RIVER       N/A     48  41  76 NW5         N/A
$$

REGIONAL REPORTS...SASKATCHEWAN

CITY           SKY/WX    TMP DP  RH WIND       PRES   REMARKS
SWIFT CURRENT  CLEAR     57  39  51 SW13      29.78S
REGINA         CLEAR     48  37  66 E7        29.77S
SASKATOON      MOCLDY    55  43  62 E8        29.70F
CYPRESS HILLS    N/A     59  32  36 NW6         N/A
VAL MARIE        N/A     45  37  76 E6          N/A
ROCKGLEN         N/A     59  36  41 S8          N/A
ASSINIBOIA       N/A     57  34  41 N15         N/A
$$




USA.gov is the U.S. government's official web portal to all federal, state and local government web resources and services.